DateTimeUTC,F1_A11,F1_S11,BsB_S11,BsG_S11,BsR_S11,BbsB_S11,BbsG_S11,BbsR_S11,BaB_A11,BaG_A11,BaR_A11,Tu_S11,T_S11,Uu_S11,U_S11,P_S11,T1_A11
2021-03-06T07:00:00Z,00000200,21000000,,,,,,,0000.03,-000.29,-000.13,17.4,24.6,01.2,00.8,0657.4,30.9
2021-03-06T07:01:00Z,00000200,21000000,,,,,,,-000.49,0000.01,-000.01,17.4,24.6,01.1,00.7,0657.4,30.9
2021-03-06T07:02:00Z,00000200,21000000,,,,,,,0000.24,-000.15,-000.07,17.4,24.6,00.9,00.6,0657.4,30.9
2021-03-06T07:03:00Z,00000200,61000000,,,,,,,0000.18,0000.47,0000.13,17.4,24.6,00.9,00.6,0657.4,30.9
2021-03-06T07:04:00Z,00000200,41000000,0001.71,0000.93,0001.20,0000.01,0000.23,0000.36,0000.44,0000.25,0000.45,17.5,24.4,00.9,00.6,0658.3,31.0
2021-03-06T07:05:00Z,00000200,01000000,0002.56,0001.15,0000.86,0000.03,0000.22,0000.27,0000.68,0000.32,0000.08,17.6,24.4,00.9,00.6,0658.4,30.9
2021-03-06T07:06:00Z,00000200,01000000,0001.82,0001.20,0000.88,-000.39,0000.23,0000.33,0000.28,0000.72,0000.47,17.6,24.4,00.9,00.6,0658.4,30.9
2021-03-06T07:07:00Z,00000200,01000000,0001.50,0001.08,0000.79,-000.24,0000.10,0000.45,0000.62,0000.31,0000.20,17.6,24.4,01.0,00.7,0658.4,30.9
2021-03-06T07:08:00Z,00000200,01000000,0001.75,0000.90,0000.57,0000.25,0000.29,0000.09,0000.46,0000.64,0000.58,17.5,24.3,01.0,00.7,0658.4,30.9
2021-03-06T07:09:00Z,00000200,01000000,0001.63,0000.96,0000.87,0000.22,0000.13,0000.44,0000.77,0000.64,0000.45,17.6,24.4,01.0,00.7,0658.4,30.9
2021-03-06T07:10:00Z,00000200,01010000,0001.69,0001.35,0000.65,0000.10,0000.11,0000.51,0000.71,0000.32,0000.60,17.6,24.3,01.1,00.7,0658.4,30.9
2021-03-06T07:11:00Z,00000200,01000000,0002.01,0001.45,0000.77,0000.03,0000.29,0000.14,0000.36,0000.63,-000.02,17.5,24.3,01.1,00.7,0658.5,30.9
2021-03-06T07:12:00Z,00000200,01000000,0001.54,0001.05,0000.98,-000.35,0000.19,0000.16,0000.57,0000.54,0000.70,17.5,24.3,01.1,00.7,0658.5,30.9
2021-03-06T07:13:00Z,00000200,01000000,0001.47,0001.15,0000.82,0000.04,-000.14,0000.19,0001.03,0000.82,0000.24,17.5,24.3,01.1,00.7,0658.5,30.9
2021-03-06T07:14:00Z,00000200,01000000,0001.79,0001.11,0001.07,-000.13,0000.00,0000.34,0000.62,0000.76,0000.81,17.5,24.3,01.2,00.8,0658.4,30.9
2021-03-06T07:15:00Z,00000200,01000000,0001.00,0001.00,0000.87,-000.07,0000.17,0000.26,0000.71,0000.55,0000.52,17.5,24.3,01.2,00.8,0658.4,30.9
2021-03-06T07:16:00Z,00000200,01000000,0001.63,0000.80,0000.67,-000.11,0000.13,0000.23,0000.98,0000.87,0000.28,17.6,24.3,01.1,00.7,0658.4,30.9
2021-03-06T07:17:00Z,00000200,01000000,0001.97,0000.59,0001.07,-000.21,0000.05,0000.24,0000.88,0000.73,0000.82,17.5,24.3,01.4,00.9,0658.4,30.9
2021-03-06T07:18:00Z,00000200,01000000,0001.66,0001.05,0001.02,0000.45,0000.23,0000.54,0000.40,0000.86,0000.43,17.5,24.3,01.3,00.9,0658.4,30.9
2021-03-06T07:19:00Z,00000200,01000000,0001.69,0001.10,0000.83,0000.02,0000.28,0000.07,0000.85,0000.34,0000.45,17.5,24.3,01.3,00.9,0658.4,30.9
2021-03-06T07:20:00Z,00000200,01000000,0001.89,0001.13,0000.62,0000.26,0000.25,0000.27,0000.89,0000.67,0000.53,17.5,24.3,01.3,00.9,0658.4,30.9
2021-03-06T07:21:00Z,00000200,01000000,0001.48,0001.13,0001.21,0000.12,0000.16,0000.54,0000.33,0000.58,0000.09,17.5,24.3,01.4,00.9,0658.4,30.9
2021-03-06T07:22:00Z,00000200,01000000,0001.78,0001.25,0000.83,-000.33,0000.03,-000.13,0001.07,0000.60,0000.56,17.5,24.3,01.3,00.9,0658.4,30.9
2021-03-06T07:23:00Z,00000200,01000000,0001.95,0001.08,0000.91,0000.23,0000.39,0000.10,0000.35,0000.31,0000.63,17.5,24.3,01.4,00.9,0658.4,31.0
2021-03-06T07:24:00Z,00000200,01000000,0002.09,0001.02,0000.98,-000.36,0000.16,0000.10,0001.02,0000.97,0000.62,17.5,24.3,01.4,00.9,0658.4,30.9
2021-03-06T07:25:00Z,00000200,01000000,0001.71,0000.98,0000.68,0000.03,0000.11,0000.16,0000.40,0000.35,0000.19,17.5,24.3,01.4,00.9,0658.4,30.9
2021-03-06T07:26:00Z,00000200,01000000,0001.72,0001.02,0001.05,0000.33,0000.35,0000.29,0000.96,0001.08,0000.94,17.5,24.3,01.6,01.1,0658.4,30.9
2021-03-06T07:27:00Z,00000200,01000000,0001.96,0001.27,0000.71,-000.27,0000.23,0000.18,0001.26,0000.91,0000.49,17.5,24.3,01.6,01.1,0658.4,30.9
2021-03-06T07:28:00Z,00000200,01000000,0001.46,0000.93,0001.10,0000.46,0000.38,0000.21,0000.38,0000.59,0000.26,17.5,24.3,01.6,01.1,0658.4,30.9
2021-03-06T07:29:00Z,00000200,01000000,0001.89,0001.15,0000.91,-000.04,-000.09,0000.52,0000.64,0000.52,0000.49,17.5,24.3,01.6,01.0,0658.4,30.9
2021-03-06T07:30:00Z,00000200,01000000,0001.70,0001.30,0000.79,-000.15,0000.19,0000.14,0000.61,0000.18,0000.46,17.5,24.3,01.5,01.0,0658.4,30.9
2021-03-06T07:31:00Z,00000200,01000000,0001.83,0000.81,0000.83,0000.45,0000.26,0000.43,0000.83,0000.72,0000.31,17.5,24.3,01.4,00.9,0658.4,30.9
2021-03-06T07:32:00Z,00000200,01000000,0001.76,0001.10,0000.92,0000.02,-000.06,0000.08,0000.33,0000.39,0000.31,17.5,24.3,01.5,01.0,0658.4,30.9
2021-03-06T07:33:00Z,00000200,01000000,0001.37,0000.99,0000.80,-000.05,0000.41,-000.00,0000.77,0000.73,0000.25,17.5,24.3,01.5,01.0,0658.4,30.9
2021-03-06T07:34:00Z,00000200,01000000,0001.58,0000.95,0001.06,-000.06,-000.10,0000.42,0000.51,0000.61,0000.63,17.5,24.3,01.4,00.9,0658.4,30.9
2021-03-06T07:35:00Z,00000200,01000000,0001.67,0001.03,0000.73,0000.09,0000.22,0000.14,0000.92,0000.89,0000.72,17.5,24.3,01.5,01.0,0658.5,30.9
2021-03-06T07:36:00Z,00000200,01000000,0001.24,0000.94,0000.65,0000.31,0000.19,0000.15,0000.66,0000.41,0000.21,17.5,24.3,01.5,01.0,0658.5,30.9
2021-03-06T07:37:00Z,00000200,01000000,0002.32,0000.99,0000.91,0000.20,0000.21,0000.29,0001.17,0001.14,0000.94,17.5,24.3,01.5,01.0,0658.5,30.9
2021-03-06T07:38:00Z,00000200,01000000,0001.89,0001.04,0001.00,0000.43,0000.05,0000.37,0000.88,0000.88,0000.65,17.5,24.3,01.6,01.1,0658.5,30.9
2021-03-06T07:39:00Z,00000200,01000000,0001.65,0001.29,0000.94,-000.29,0000.14,0000.06,0000.59,0000.69,0000.49,17.5,24.3,01.7,01.1,0658.4,30.9
2021-03-06T07:40:00Z,00000200,01000000,0001.77,0001.06,0001.01,0000.10,0000.23,0000.26,0000.75,0000.48,0000.41,17.5,24.3,01.8,01.2,0658.5,31.0
2021-03-06T07:41:00Z,00000200,01000000,0001.50,0001.20,0000.87,-000.07,0000.09,0000.24,0001.06,0000.97,0000.94,17.5,24.3,01.8,01.2,0658.5,30.9
2021-03-06T07:42:00Z,00000200,01000000,0001.94,0001.14,0000.75,0000.20,0000.22,0000.02,0000.90,0001.34,0000.80,17.5,24.3,01.8,01.2,0658.5,30.9
2021-03-06T07:43:00Z,00000200,01000000,0001.52,0001.28,0000.94,0000.09,0000.26,0000.10,0000.95,0000.06,0000.29,17.5,24.3,01.7,01.2,0658.4,30.9
2021-03-06T07:44:00Z,00000200,01000000,0001.91,0001.23,0000.67,0000.03,0000.38,0000.18,0000.76,0000.85,0000.66,17.5,24.3,01.8,01.2,0658.4,30.9
2021-03-06T07:45:00Z,00000200,01000000,0001.35,0001.15,0000.96,-000.19,0000.19,0000.11,0000.56,0000.17,0000.14,17.5,24.3,01.7,01.1,0658.4,30.9
2021-03-06T07:46:00Z,00000200,01000000,0001.13,0001.09,0001.02,0000.09,0000.08,-000.07,0000.18,0000.57,0000.46,17.5,24.3,01.7,01.1,0658.4,30.9
2021-03-06T07:47:00Z,00000200,01000000,0001.82,0000.93,0000.70,-000.35,0000.27,0000.21,0000.63,0000.46,0000.47,17.5,24.3,01.6,01.1,0658.4,30.9
2021-03-06T07:48:00Z,00000200,01000000,0001.49,0001.04,0000.97,-000.09,0000.28,0000.33,0000.45,0000.35,0000.30,17.5,24.3,01.5,01.0,0658.4,30.9
2021-03-06T07:49:00Z,00000200,01000000,0001.45,0000.98,0000.77,-000.12,0000.34,0000.28,0000.56,0000.31,0000.14,17.5,24.3,01.5,01.0,0658.4,30.9
2021-03-06T07:50:00Z,00000200,01000000,0001.49,0000.89,0000.93,0000.40,0000.38,0000.26,0000.68,0000.91,0000.45,17.5,24.3,01.5,01.0,0658.4,30.9
2021-03-06T07:51:00Z,00000200,01000000,0001.65,0000.79,0000.86,0000.14,0000.00,0000.03,0000.43,0000.81,0000.20,17.5,24.3,01.5,01.0,0658.4,30.9
2021-03-06T07:52:00Z,00000200,01000000,0001.80,0001.04,0000.93,0000.74,0000.14,0000.03,0000.76,0000.31,0000.63,17.5,24.2,01.5,01.0,0658.4,30.9
2021-03-06T07:53:00Z,00000200,01000000,0001.67,0001.21,0000.45,0000.09,0000.19,0000.23,0000.34,0000.14,0000.33,17.5,24.3,01.4,00.9,0658.4,31.0
2021-03-06T07:54:00Z,00000200,01000000,0001.53,0000.85,0000.84,0000.13,0000.18,0000.14,0000.93,0000.87,0000.37,17.5,24.3,01.4,00.9,0658.4,30.9
2021-03-06T07:55:00Z,00000200,01000000,0001.29,0001.05,0000.76,0000.25,0000.21,0000.12,0000.15,0000.28,0000.30,17.5,24.2,01.4,00.9,0658.4,30.9
2021-03-06T07:56:00Z,00000200,01000000,0001.62,0000.96,0000.80,0000.09,-000.01,-000.07,0000.92,0000.47,0000.76,17.5,24.2,01.4,00.9,0658.4,30.9
2021-03-06T07:57:00Z,00000200,41000000,,,,,,,0000.41,0000.77,0000.12,17.6,24.3,00.9,00.6,0658.6,30.9
2021-03-06T07:58:00Z,00000200,61000000,,,,,,,-000.09,-000.39,-000.02,17.3,24.4,01.4,00.9,0657.5,31.0
2021-03-06T07:59:00Z,00000200,21000000,,,,,,,0000.21,0000.18,-000.18,17.3,24.5,01.4,00.9,0657.5,30.9
